Location: Brunsen
(51.8651°N, 9.8610°E)
Time: 21:06:07
(UTC+00:00)

CZ-2C R/B - Pass Details

Date: 20 August 2024
Orbit: 782 x 869 km, 98.3° (Epoch: 07 September)

Event Time Altitude Azimuth Distance (km) Brightness Sun altitude
Exits shadow 22:59:55 - 93° (E) 2,792 5.3 -25.9°
Reaches altitude 10° 23:01:24 10° 81° (E) 2,432 5.1 -25.9°
Maximum altitude 23:04:11 14° 50° (NE) 2,118 5.1 -26.0°
Drops below altitude 10° 23:06:56 10° 19° (NNE) 2,409 5.9 -26.0°
Sets 23:10:19 0° 356° (N) 3,328 7.2 -26.0°
